Change the Weather History Date:

Monday, March 11, 2013

  Actual Average Record
Temperature  
Mean Temperature 50 °F -  
Max Temperature 56 °F 52 °F 68 °F (1989)
Min Temperature 43 °F 30 °F 16 °F (2009)
Degree Days  
Heating Degree Days 15 24  
Month to date heating degree days 255 286  
Since 1 July heating degree days 4547 4853  
Cooling Degree Days 0 0  
Month to date cooling degree days 0 0  
Year to date cooling degree days 0 0  
Moisture  
Dew Point 27 °F    
Average Humidity 48    
Maximum Humidity 62    
Minimum Humidity 34    
Precipitation  
Precipitation 0.00 in 0.03 in 0.21 in (1991)
Month to date precipitation 0.12 0.26  
Year to date precipitation 1.05 2.05  
Sea Level Pressure  
Sea Level Pressure 30.17 in    
Wind  
Wind Speed 16 mph (SW)    
Max Wind Speed 26 mph    
Max Gust Speed 33 mph    
Visibility 10 miles    
Events      
T = Trace of Precipitation, MM = Missing Value Source: NWS Daily Summary

Daily Weather History Graph

Daily Weather History Graph

Search for Another Location

Airport or City:

Trip Planner

Search our weather history database for the weather conditions in past years. The results will help you decide how hot, cold, wet, or windy it might be!

Date:

Astronomy

Mar. 11, 2013 Rise Set
Actual Time 7:56 AM MDT 7:40 PM MDT
Civil Twilight 7:28 AM MDT 8:08 PM MDT
Nautical Twilight 6:55 AM MDT 8:40 PM MDT
Astronomical Twilight 6:22 AM MDT 9:13 PM MDT
Moon 7:31 AM MDT (3/11) 7:58 PM MDT (3/11)
Length of Visible Light 12h 40m
Length of Day
11h 43m
Waning Crescent, 0% of the Moon is Illuminated
Mar 11
Waning Crescent
Mar 11
New
Mar 19
First Quarter
Mar 27
Full
Apr 2
Last Quarter

Hourly Weather History & Observations

Time (MDT) Temp. Windchill Dew Point Humidity Pressure Visibility Wind Dir Wind Speed Gust Speed Precip Events Conditions
12:53 AM 43.0 °F 36.4 °F 21.9 °F 43% 30.22 in 10.0 mi SSW 12.7 mph - N/A   Overcast
1:53 AM 45.0 °F 39.3 °F 21.0 °F 39% 30.19 in 10.0 mi SSW 11.5 mph - N/A   Overcast
2:53 AM 46.0 °F 40.6 °F 19.9 °F 35% 30.19 in 10.0 mi SSW 11.5 mph - N/A   Overcast
3:53 AM 44.1 °F 37.1 °F 19.9 °F 38% 30.17 in 10.0 mi SSW 15.0 mph - N/A   Overcast
4:53 AM 44.1 °F 38.1 °F 21.0 °F 40% 30.16 in 10.0 mi SSW 11.5 mph - N/A   Overcast
5:53 AM 44.1 °F 38.1 °F 21.0 °F 40% 30.16 in 10.0 mi SW 11.5 mph - N/A   Overcast
6:53 AM 43.0 °F 36.8 °F 23.0 °F 45% 30.17 in 10.0 mi SSW 11.5 mph - N/A   Overcast
7:53 AM 43.0 °F 36.8 °F 23.0 °F 45% 30.18 in 10.0 mi SSW 11.5 mph - N/A   Overcast
8:53 AM 44.1 °F 38.1 °F 23.0 °F 43% 30.19 in 10.0 mi SW 11.5 mph - N/A   Overcast
9:53 AM 46.0 °F 39.3 °F 25.0 °F 44% 30.21 in 10.0 mi WSW 16.1 mph - N/A   Overcast
10:53 AM 48.0 °F - 27.0 °F 44% 30.22 in 10.0 mi WSW 16.1 mph 24.2 mph N/A   Overcast
11:53 AM 51.1 °F - 30.0 °F 44% 30.19 in 10.0 mi West 20.7 mph 27.6 mph N/A   Mostly Cloudy
12:53 PM 51.1 °F - 30.9 °F 46% 30.19 in 10.0 mi West 19.6 mph 27.6 mph N/A   Overcast
1:53 PM 54.0 °F - 32.0 °F 43% 30.15 in 10.0 mi WSW 24.2 mph 29.9 mph N/A   Mostly Cloudy
2:53 PM 55.9 °F - 32.0 °F 40% 30.12 in 10.0 mi West 21.9 mph 29.9 mph N/A   Overcast
3:53 PM 55.0 °F - 32.0 °F 42% 30.11 in 10.0 mi West 23.0 mph 29.9 mph N/A   Partly Cloudy
5:53 PM 53.1 °F - 32.0 °F 45% 30.11 in 10.0 mi West 19.6 mph 28.8 mph N/A   Clear
6:53 PM 51.1 °F - 33.1 °F 50% 30.12 in 10.0 mi West 17.3 mph - N/A   Clear
7:53 PM 46.9 °F - 33.1 °F 59% 30.14 in 10.0 mi WSW 11.5 mph - N/A   Clear
8:53 PM 45.0 °F 38.9 °F 32.0 °F 60% 30.15 in 10.0 mi SW 12.7 mph - N/A   Clear
9:53 PM 44.1 °F 37.1 °F 30.0 °F 58% 30.16 in 10.0 mi WSW 15.0 mph - N/A   Scattered Clouds
10:53 PM 46.0 °F 39.9 °F 28.9 °F 51% 30.17 in 10.0 mi WSW 13.8 mph - N/A   Overcast
11:53 PM 44.1 °F 37.4 °F 30.0 °F 58% 30.17 in 10.0 mi SW 13.8 mph - N/A   Overcast